Location: ???? ?????????
(31.1304°N, 31.7111°E)
Time: 10:49:20
(UTC+00:00)

Vanguard 2 - All Passes

Search period start: 01 March 2021 00:00
Search period end: 11 March 2021 00:00
Orbit: 552 x 2938 km, 32.9° (Epoch: 28 February)

Date Brightness Start Highest point End Pass type
(mag) Time Alt. Az. Time Alt. Az. Time Alt. Az.
01 Mar - 01:19:57 10° SW 01:33:52 68° SSE 01:51:41 10° ENE visible
01 Mar - 03:30:13 10° W 03:47:07 87° N 04:04:27 10° E visible
01 Mar - 05:42:54 10° W 06:01:11 89° N 06:15:45 10° ESE daylight
01 Mar - 07:56:45 10° WNW 08:13:21 59° SSW 08:24:35 10° SE daylight
01 Mar - 10:13:26 10° W 10:22:13 20° SW 10:28:57 10° S daylight
01 Mar - 23:30:12 10° SSW 23:40:48 38° SE 23:55:31 10° E visible
02 Mar - 01:37:33 10° WSW 01:51:46 77° SSE 02:09:53 10° ENE visible
02 Mar - 03:48:21 10° W 04:05:26 84° N 04:22:35 10° E visible
02 Mar - 06:01:06 10° WNW 06:19:21 85° SSW 06:33:39 10° ESE daylight
02 Mar - 08:15:09 10° WNW 08:30:53 48° SW 08:41:47 10° SSE daylight
02 Mar - 10:34:32 10° WSW 10:39:19 13° SW 10:43:27 10° SSW daylight
02 Mar - 21:45:09 10° SSE 21:49:41 13° SE 21:54:59 10° ESE visible
02 Mar - 23:47:07 10° SW 23:58:12 49° SE 00:14:06 10° ENE visible
03 Mar - 01:55:20 10° WSW 02:09:50 85° SSE 02:28:05 10° ENE visible
03 Mar - 04:06:30 10° W 04:23:47 84° N 04:40:44 10° E daylight
03 Mar - 06:19:17 10° WNW 06:37:24 77° SSW 06:51:26 10° ESE daylight
03 Mar - 08:33:44 10° W 08:48:17 38° SW 08:58:41 10° SSE daylight
03 Mar - 21:59:49 10° S 22:06:47 20° SE 22:15:54 10° E visible
04 Mar - 00:04:19 10° SW 00:15:45 59° SSE 00:32:29 10° ENE visible
04 Mar - 02:13:15 10° WSW 02:28:00 89° NNW 02:46:16 10° E visible
04 Mar - 04:24:39 10° W 04:42:06 87° N 04:58:52 10° E daylight
04 Mar - 06:37:29 10° WNW 06:55:17 67° SSW 07:09:01 10° SE daylight
04 Mar - 08:52:42 10° W 09:05:32 29° SW 09:15:10 10° S daylight
04 Mar - 22:15:50 10° S 22:23:54 29° SE 22:35:23 10° E visible
05 Mar - 00:21:46 10° SW 00:33:29 70° SSE 00:50:45 10° ENE visible
05 Mar - 02:31:15 10° W 02:46:15 85° N 03:04:30 10° E visible
05 Mar - 04:42:47 10° W 05:00:21 89° SSW 05:16:54 10° ESE daylight
05 Mar - 06:55:44 10° WNW 07:13:01 57° SSW 07:26:24 10° SE daylight
05 Mar - 09:12:20 10° W 09:22:44 21° SW 09:31:02 10° S daylight
05 Mar - 22:32:26 10° SSW 22:41:09 38° SE 22:54:15 10° E visible
06 Mar - 00:39:24 10° WSW 00:51:23 80° SSE 01:09:00 10° ENE visible
06 Mar - 02:49:18 10° W 03:04:34 84° N 03:22:45 10° E visible
06 Mar - 05:00:54 10° WNW 05:18:30 82° SSW 05:34:50 10° ESE daylight
06 Mar - 07:14:07 10° WNW 07:30:36 47° SW 07:43:31 10° SSE daylight
06 Mar - 09:33:27 10° WSW 09:39:54 14° SW 09:45:32 10° SSW daylight
06 Mar - 20:48:06 10° SE 20:50:45 11° SE 20:53:44 10° ESE night (unlit)
06 Mar - 22:49:26 10° SW 22:58:31 49° SE 23:12:48 10° ENE visible
07 Mar - 00:57:10 10° WSW 01:09:25 87° SSE 01:27:15 10° ENE visible
07 Mar - 03:07:22 10° W 03:22:53 85° N 03:40:59 10° E visible
07 Mar - 05:19:00 10° WNW 05:36:32 74° SSW 05:52:35 10° ESE daylight
07 Mar - 07:32:45 10° W 07:48:04 37° SW 08:00:19 10° SSE daylight
07 Mar - 21:02:26 10° S 21:07:49 18° SE 21:14:55 10° E night (unlit)
07 Mar - 23:06:43 10° SW 23:16:04 61° SSE 23:31:10 10° ENE visible
08 Mar - 01:15:03 10° W 01:27:33 87° N 01:45:31 10° E visible
08 Mar - 03:25:24 10° W 03:41:09 88° N 03:59:10 10° ESE visible
08 Mar - 05:37:08 10° WNW 05:54:26 65° SSW 06:10:09 10° SE daylight
08 Mar - 07:51:46 10° W 08:05:25 29° SW 08:16:40 10° S daylight
08 Mar - 21:18:30 10° S 21:24:56 27° SE 21:34:18 10° E visible
08 Mar - 23:24:11 10° WSW 23:33:47 72° SSE 23:49:26 10° ENE visible
09 Mar - 01:32:59 10° W 01:45:46 84° N 02:03:50 10° E visible
09 Mar - 03:43:26 10° WNW 03:59:21 87° SSW 04:17:15 10° ESE visible
09 Mar - 05:55:20 10° WNW 06:12:13 55° SSW 06:27:28 10° SE daylight
09 Mar - 08:11:32 10° W 08:22:43 21° SW 08:32:20 10° S daylight
09 Mar - 21:35:10 10° SSW 21:42:10 37° SE 21:53:05 10° E visible
09 Mar - 23:41:50 10° WSW 23:51:39 82° SSE 00:07:42 10° ENE visible
10 Mar - 01:50:58 10° W 02:04:01 84° N 02:22:10 10° E visible
10 Mar - 04:01:27 10° WNW 04:17:28 79° SSW 04:35:10 10° ESE daylight
10 Mar - 06:13:43 10° WNW 06:29:51 45° SW 06:44:29 10° SSE daylight
10 Mar - 08:32:51 10° WSW 08:40:02 14° SW 08:46:35 10° SSW daylight
10 Mar - 21:52:14 10° SW 21:59:32 48° SE 22:11:34 10° ENE visible
